This demonstration page uses our WeatherBlox Daily Observations layout. Learn more.

Left ArrowRight Arrow

Hourly Observations for April 2, 2022

Temp ( °F °C ) Dew Point ( °F °C ) Humidity (%) Winds ( mph kmh ) Pressure ( in mb ) Visibility ( mi km ) Precip ( " mm )
12:53 am 00:53 Clear 56 13.3 40 4.4 55 55 Calm 29.92 1013 10 16 0.00 0.00
1:53 am 01:53 Clear 52 11.1 39 3.9 61 61 Calm 29.94 1014 10 16 0.00 0.00
2:53 am 02:53 Clear 53 11.7 40 4.4 61 61 N 7 11 29.95 1014 10 16 0.00 0.00
3:53 am 03:53 Clear 50 10 39 3.9 66 66 N 6 9 29.97 1015 10 16 0.00 0.00
4:53 am 04:53 Clear 49 9.4 39 3.9 69 69 NE 6 9 29.99 1016 10 16 0.00 0.00
5:53 am 05:53 Clear 49 9.4 39 3.9 69 69 NE 5 7 30.01 1016 10 16 0.00 0.00
6:53 am 06:53 Sunny 54 12.2 36 2.2 51 51 NW 7 11 30.02 1017 10 16 0.00 0.00
7:53 am 07:53 Sunny 59 15 34 1.1 39 39 NNW 9 15 30.04 1017 10 16 0.00 0.00
8:53 am 08:53 Sunny 62 16.7 33 0.6 34 34 N 14 22 30.05 1018 10 16 0.00 0.00
9:53 am 09:53 Sunny 66 18.9 30 -1.1 26 26 N 20 31 30.06 1018 10 16 0.00 0.00
10:53 am 10:53 Sunny 68 20 28 -2.2 22 22 N 18 30 30.08 1019 10 16 0.00 0.00
11:53 am 11:53 Sunny 71 21.7 26 -3.3 19 19 N 17 28 30.06 1018 10 16 0.00 0.00
12:53 pm 12:53 Sunny 75 23.9 24 -4.4 15 15 N 16 26 30.04 1017 10 16 0.00 0.00
1:53 pm 13:53 Sunny 76 24.4 23 -5 14 14 N 16 26 30.02 1017 10 16 0.00 0.00
2:53 pm 14:53 Sunny 77 25 26 -3.3 15 15 N 13 20 30.01 1016 10 16 0.00 0.00
3:53 pm 15:53 Sunny 79 26.1 22 -5.6 12 12 NNE 12 19 29.98 1015 10 16 0.00 0.00
4:53 pm 16:53 Sunny 80 26.7 21 -6.1 11 11 NNE 10 17 29.96 1015 10 16 0.00 0.00
5:53 pm 17:53 Sunny 80 26.7 20 -6.7 10 10 N 6 9 29.95 1014 10 16 0.00 0.00
6:53 pm 18:53 Sunny 78 25.6 21 -6.1 12 12 N 5 7 29.94 1014 10 16 0.00 0.00
7:53 pm 19:53 Clear 68 20 25 -3.9 20 20 NNW 3 6 29.94 1014 10 16 0.00 0.00
8:53 pm 20:53 Clear 66 18.9 26 -3.3 22 22 NW 8 13 29.96 1015 10 16 0.00 0.00
9:53 pm 21:53 Clear 59 15 33 0.6 38 38 N 7 11 29.97 1015 10 16 0.00 0.00
10:53 pm 22:53 Clear 57 13.9 31 -0.6 37 37 NW 5 7 29.97 1015 10 16 0.00 0.00
11:53 pm 23:53 Clear 53 11.7 31 -0.6 43 43 Calm 29.98 1015 10 16 0.00 0.00

Powered by AerisWeather